LKKB Weather Reports


time (UTC)temp
C
wind
direction
speed
KPH
gust
KPH
rain 1hr
cm
rain 24hr
cm
rain mn
cm
humidity
%
barometer
mb
20260502211850 16 110 11.3 0.0 0.00 0.00 0.00 38
20260502203102 16 90 8.0 0.0 0.00 0.00 0.00 38 1018.0
20260502201850 15 90 8.0 0.0 0.00 0.00 0.00 41
20260502200210 16 80 8.0 0.0 0.00 0.00 0.00 38 1018.0
20260502193103 18 80 11.3 0.0 0.00 0.00 0.00 29 1018.0
20260502191850 17 80 11.3 0.0 0.00 0.00 0.00 36
20260502190210 18 80 11.3 0.0 0.00 0.00 0.00 29 1018.0
20260502183103 21 70 11.3 0.0 0.00 0.00 0.00 28 1018.0
20260502181850 17 70 11.3 0.0 0.00 0.00 0.00 36
20260502163103 22 70 11.3 0.0 0.00 0.00 0.00 25 1019.0
20260502161850 22 160 8.0 0.0 0.00 0.00 0.00 23
20260502160210 23 0 3.2 0.0 0.00 0.00 0.00 23 1019.0
20260502151833 23 120 11.3 0.0 0.00 0.00 0.00 22
20260502150103 23 90 9.7 0.0 0.00 0.00 0.00 20 1020.0
20260502130103 22 80 9.7 0.0 0.00 0.00 0.00 27 1021.0
20260502123102 22 40 9.7 0.0 0.00 0.00 0.00 26 1022.0
20260502121853 22 40 8.0 0.0 0.00 0.00 0.00 26
20260502120211 22 20 8.0 0.0 0.00 0.00 0.00 30 1022.0
20260502113103 21 20 9.7 0.0 0.00 0.00 0.00 30 1023.0
20260502111852 21 60 11.3 0.0 0.00 0.00 0.00 32
20260502110211 21 20 8.0 0.0 0.00 0.00 0.00 35 1023.0
20260502103102 20 30 8.0 0.0 0.00 0.00 0.00 34 1024.0
20260502101852 20 30 8.0 0.0 0.00 0.00 0.00 37
20260502070211 12 0 3.2 0.0 0.00 0.00 0.00 54 1025.0
20260502063103 11 200 4.8 0.0 0.00 0.00 0.00 66 1025.0
20260502061853 10 200 8.0 0.0 0.00 0.00 0.00 66
20260502053102 8 190 8.0 0.0 0.00 0.00 0.00 70 1025.0
20260502051853 7 190 3.2 0.0 0.00 0.00 0.00 75
20260502043103 6 200 8.0 0.0 0.00 0.00 0.00 81 1025.0
20260502041853 6 200 8.0 0.0 0.00 0.00 0.00 81
20260502033209 6 200 8.0 0.0 0.00 0.00 0.00 81 1025.0
20260502031854 7 200 8.0 0.0 0.00 0.00 0.00 75
20260502023102 7 200 8.0 0.0 0.00 0.00 0.00 75 1025.0
20260502021852 6 190 8.0 0.0 0.00 0.00 0.00 81
20260502013210 7 170 4.8 0.0 0.00 0.00 0.00 75 1025.0
20260502011852 7 200 8.0 0.0 0.00 0.00 0.00 75
20260502010104 8 190 4.8 0.0 0.00 0.00 0.00 70 1025.0
20260502003102 7 200 8.0 0.0 0.00 0.00 0.00 75 1025.0
20260502001851 8 190 8.0 0.0 0.00 0.00 0.00 70
20260501233102 7 190 3.2 0.0 0.00 0.00 0.00 70 1026.0
20260501231854 12 200 3.2 0.0 0.00 0.00 0.00 58
20260501230210 8 200 3.2 0.0 0.00 0.00 0.00 66 1026.0
20260501223103 10 180 3.2 0.0 0.00 0.00 0.00 61 1026.0
20260501221951 11 170 3.2 0.0 0.00 0.00 0.00 57
20260501220210 11 180 4.8 0.0 0.00 0.00 0.00 57 1026.0
20260501213103 11 200 4.8 0.0 0.00 0.00 0.00 57 1026.0